Regional Weather Roundup
Issued by NWS Northern Indiana

Home | Current Version | Previous Version | Graphics & Text | Print | Product List | Glossary On
Versions: 1 2 3 4 5 6 7 8 9 10 11 12 13 14 15 16 17 18 19 20 21 22 23 24 25 26 27 28 29 30 31 32 33 34 35 36 37 38 39 40 41 42 43 44 45 46 47 48 49 50
000
ASUS43 KIWX 191501
RWRIWX

KIWX WEATHER ROUNDUP
NATIONAL WEATHER SERVICE NORTHERN INDIANA
1100 AM EDT SAT AUG 19 2017

NOTE: "FAIR" INDICATES FEW OR NO CLOUDS BELOW 12,000 FEET WITH NO
SIGNIFICANT WEATHER AND/OR OBSTRUCTIONS TO VISIBILITY.

* THESE STATIONS ARE NOT UNDER NWS QUALITY CONTROL. THEY ALSO MAY NOT
  REPORT WEATHER SUCH AS PRECIPITATION OR FOG.

INZ001>027-191600-
NORTHERN INDIANA

CITY           SKY/WX    TMP DP  RH WIND       PRES   REMARKS
GARY*          MOSUNNY   73  61  64 VRB5      29.97S
VALPARAISO     MOSUNNY   76  64  66 NW3       29.97R
MICHIGAN CITY* MOSUNNY   72  61  68 N5        29.97S
SOUTH BEND     MOSUNNY   73  61  65 NW8       29.96S
ELKHART*       MOSUNNY   73  61  64 NW5       29.96R
GOSHEN         MOSUNNY   73  60  63 NW12      29.96R
MONTICELLO*    SUNNY     73  65  74 N3        29.95S
FORT WAYNE     MOSUNNY   74  65  73 W8        29.96R
PERU/GRISSOM   MOSUNNY   74  65  73 N7        29.96R

$$
INZ028>050-191600-
CENTRAL INDIANA

CITY           SKY/WX    TMP DP  RH WIND       PRES   REMARKS
LAFAYETTE      SUNNY     76  66  71 E5        29.94F
KOKOMO*        MOSUNNY   75  66  73 NW6       29.98R
MUNCIE*        MOSUNNY   78  67  68 VRB5      29.97R
INDIANAPOLIS   MOSUNNY   78  66  66 NW6       29.95

$$
MIZ043>046-050>051-056>058-064>065-071>073-077>080-191600-
SOUTHWEST LOWER MICHIGAN

CITY           SKY/WX    TMP DP  RH WIND       PRES   REMARKS
BATTLE CREEK   SUNNY     73  58  59 N9        29.96R
BENTON HARBOR  SUNNY     74  59  59 VRB7      29.96R
COLDWATER*     PTSUNNY   73  62  68 NW6       29.95R
HILLSDALE*     CLOUDY    70  61  73 NW8       29.94R
HOLLAND        SUNNY     73  59  61 NE3       29.96R
GRAND RAPIDS   MOSUNNY   72  56  57 NW7       29.95R
KALAMAZOO      MOSUNNY   75  55  49 N7        29.96R
STURGIS*       PTSUNNY   71  62  72 N5        29.96R
THREE RIVERS*  FAIR      74  61  63 NW7       29.95S

$$
OHZ001>008-015>018-024>025-191600-
NORTHWEST OHIO

CITY           SKY/WX    TMP DP  RH WIND       PRES   REMARKS
DEFIANCE       MOSUNNY   73  65  75 W9        29.94R
FINDLAY        SUNNY     76  63  64 W8        29.92R
TOLEDO EXPRESS MOSUNNY   72  67  84 VRB7      29.92R
TOLEDO METCALF SUNNY     74  66  76 W7        29.92S
LIMA           SUNNY     77  67  71 VRB7      29.93S

$$
AND FOR LAKE MICHIGAN COASTAL AND OPEN LAKE BUOY OBSERVATIONS

STATION/POSITION TEMP    WIND        PRES    VSBY  WAVE
                 AIR SEA DIR/SP/G                  HT/PER
                 (F)     (DEG/KT/KT) (MB)    (MI)  (FT/S)
CALUMET HARBOR    71      50/  5/  7 1014.1R
MICHIGAN CITY     72     320/  5/  6   N/A
BURNS HARBOR      71     350/  3/  5 1015.2S
SAINT JOSEPH      71     340/  6/  8 1014.6
SOUTH LAKE BUOY   68 71  340/  6/  8 1013.9          1/ 3
4 MI NW BRIDGMAN  71 73  360/  6/  8 1014.4R         2/ 4
MICHIGAN CITY     71 74   10/  4/  6   N/A           3/ 4

$$
&&




USA.gov is the U.S. government's official web portal to all federal, state and local government web resources and services.